Location: Maiden
(35.5760°N, 81.2120°W)
Time: 09:37:09
(UTC-04:00)

Daily predictions for brighter satellites

Satellite Brightness Start Highest point End
(mag) Time Altitude Azimuth Time Altitude Azimuth Time Altitude Azimuth
Cosmos 2233 Rocket 4.3 20:50:21 10° N 20:56:29 74° W 21:02:37 10° S
Cosmos 2251 Rocket 4.1 20:52:42 10° N 20:57:39 41° ENE 21:02:34 10° SE
IRS-1A Rocket 4.4 20:55:04 10° SSE 21:00:55 75° ENE 21:06:40 10° N
STARLINK-1205 4.1 20:57:28 10° SSW 21:01:19 39° SE 21:05:10 10° ENE
Ariane Rocket 3.0 20:57:05 10° SSE 21:02:08 81° ENE 21:07:13 10° N
STARLINK-1151 3.8 20:58:26 10° NW 21:02:33 63° NE 21:06:39 10° SE
STARLINK-1218 3.9 21:02:20 10° SSW 21:06:15 43° SE 21:10:11 10° ENE
DELTA 2 R/B (1) 4.2 21:01:54 10° WNW 21:07:14 48° SSW 21:12:33 10° SE
STARLINK-1133 3.7 21:03:23 10° NW 21:07:31 71° NE 21:11:36 10° SE
Cosmos 2242 Rocket 4.2 21:03:35 10° SSE 21:07:34 35° E 21:11:34 10° NNE
Cosmos 1943 4.3 21:05:40 10° NW 21:11:02 45° WSW 21:16:22 10° S
STARLINK-1254 3.8 21:07:15 10° SSW 21:11:13 49° SE 21:15:13 10° ENE
STARLINK-1139 3.6 21:08:22 10° NW 21:12:31 79° NE 21:16:24 11° SE
CZ-2C R/B 3.8 21:09:41 10° NNE 21:14:05 56° E 21:18:30 10° S
FREGAT/IRIS 2.4 21:11:45 10° S 21:14:24 73° WSW 21:17:04 10° NNW
SEDSat Delta rocket 4.2 21:07:43 10° WSW 21:14:25 61° S 21:20:51 10° E
STARLINK-1231 3.7 21:12:11 10° SSW 21:16:12 55° SE 21:20:15 10° NE
STARLINK-1174 3.6 21:13:19 10° NW 21:17:28 87° NE 21:21:10 13° SE
ARGOS 3.3 21:12:38 10° S 21:17:59 79° WSW 21:23:23 10° NNW
SL-08 RB Rocket 3.7 21:14:46 10° SSE 21:19:23 80° ENE 21:24:00 10° N
Cosmos 1666 2.6 21:17:12 10° N 21:21:04 83° E 21:24:54 10° S
STARLINK-1212 4.3 21:18:09 10° WSW 21:21:08 42° NW 21:24:06 10° NNE
STARLINK-1232 3.6 21:17:06 10° SSW 21:21:10 62° SE 21:25:15 10° NE
CZ-2C R/B 2.8 21:15:37 10° NNE 21:21:11 64° E 21:26:44 10° S
STARLINK-1105 4.3 21:18:39 10° WSW 21:21:37 42° NW 21:24:35 10° NNE
Cosmos 1536 2.8 21:18:06 10° N 21:22:11 84° E 21:26:15 10° S
STARLINK-1149 3.6 21:18:17 10° NW 21:22:26 85° SW 21:25:56 14° SE
STARLINK-1247 4.3 21:19:34 10° WSW 21:22:32 41° NW 21:25:30 10° NNE
STARLINK-1227 4.4 21:20:02 10° WSW 21:22:59 40° NW 21:25:57 10° NNE
ATLAS 3B CENTAUR R/B 4.3 21:12:28 10° SSW 21:23:20 24° SSE 21:28:41 13° ESE
DNEPR-1 R/B 4.3 21:17:26 10° NNW 21:23:26 58° NE 21:27:38 14° SE
STARLINK-1226 4.4 21:20:54 10° WSW 21:23:51 39° NW 21:26:47 10° NNE
STARLINK-1215 4.5 21:21:51 10° WSW 21:24:46 39° NW 21:27:44 10° NNE
Cosmos 44 Rocket 4.2 21:20:25 10° NNW 21:24:55 35° NE 21:28:39 14° ESE
STARLINK-1208 3.5 21:22:01 10° SW 21:26:07 69° SE 21:30:14 10° NE
MONITOR-E 4.2 21:24:21 10° S 21:26:52 58° W 21:29:24 10° NNW
STARLINK-1180 3.7 21:23:18 10° NW 21:27:26 76° SW 21:30:45 15° SE
IUS-1 SRM-2 3.6 21:29:49 10° SSW 21:30:28 11° S 21:30:53 10° S
STARLINK-1271 3.5 21:26:59 10° SW 21:31:06 78° SE 21:35:14 10° NE
SJ-6B 3.0 21:28:19 10° S 21:32:03 65° W 21:35:47 10° NNW
STARLINK-1153 3.8 21:28:17 10° NW 21:32:23 68° SW 21:35:31 17° SE
Cosmos 2278 Rocket 3.3 21:29:04 11° SSE 21:33:09 24° E 21:37:34 10° NE
Cosmos 2084 Rocket 4.5 21:31:45 10° SW 21:35:51 50° NW 21:40:04 10° NNE
USA 186 3.5 21:34:04 10° SSW 21:35:57 21° W 21:37:55 10° NW
STARLINK-1154 3.5 21:31:57 10° SW 21:36:05 86° SE 21:40:14 10° NE
ASTEX 1 3.3 21:31:34 10° S 21:36:26 84° E 21:41:21 10° N
STARLINK-1132 3.9 21:33:16 10° NW 21:37:21 60° SW 21:40:18 18° SSE
Meteor 1-18 Rocket 4.4 21:35:14 10° SSE 21:40:35 52° E 21:46:00 10° NNE
STARLINK-1197 3.6 21:36:55 10° SW 21:41:02 85° NW 21:45:12 10° NE
STARLINK-1177 4.1 21:38:17 10° NW 21:42:19 53° SW 21:45:05 19° SSE
Cosmos 1844 Rocket 3.7 21:37:24 10° SW 21:42:54 51° WNW 21:48:25 10° N
Cosmos 1733 Rocket 3.9 21:38:57 10° NNW 21:43:11 49° W 21:47:21 10° SSW
STARLINK-1157 3.7 21:42:16 10° NW 21:45:29 44° NE 21:47:08 24° E
STARLINK-1198 3.8 21:41:52 10° SW 21:45:59 77° NW 21:50:08 10° NE
Okean 1-7 3.1 21:42:11 11° S 21:46:10 56° E 21:50:21 10° NNE
STARLINK-1167 4.3 21:43:18 10° WNW 21:47:17 47° SW 21:49:53 20° SSE
Meteor 1-4 Rocket 3.4 21:49:28 27° ESE 21:50:07 29° E 21:53:09 10° NNE
Hubble Space Telescope 1.7 21:46:42 10° WSW 21:50:19 29° S 21:51:31 25° SE
STARLINK-1199 3.9 21:46:55 10° SW 21:51:02 69° NW 21:55:09 10° NE
STARLINK-1168 4.4 21:48:19 10° WNW 21:52:14 42° SW 21:54:39 20° SSE
Resurs 01 Rocket 1.6 21:51:57 21° SSE 21:54:49 66° ENE 21:59:14 10° N
Cosmos 407 Rocket 4.2 21:50:51 10° N 21:55:51 40° ENE 21:58:29 24° ESE
STARLINK-1210 4.1 21:51:53 10° WSW 21:55:59 62° NW 22:00:05 10° NE
SPOT 3 Rocket 3.7 21:53:37 12° S 21:58:21 71° WSW 22:03:30 10° NNW
NOSS 2-3 (E) 3.6 21:54:40 10° SW 21:58:49 78° WNW 22:03:28 10° NNE
STARLINK-1135 4.4 21:55:37 10° NNW 21:59:33 41° NE 22:01:31 24° E
STARLINK-1219 4.3 21:56:55 10° WSW 22:00:58 56° NW 22:05:02 10° NE
BREEZE-M DEB (TANK) 3.0 21:59:26 10° NW 22:01:38 45° NE 22:02:09 37° ENE
STARLINK-1141 4.3 22:00:35 10° NW 22:04:34 45° NE 22:06:19 28° E
Meteor 2-4 Rocket 4.0 22:05:03 26° SSE 22:07:40 44° E 22:12:44 10° NNE
ERBS 3.7 22:10:25 23° ENE 22:10:25 23° ENE 22:11:56 10° NE
STARLINK-1140 4.1 22:05:30 10° NW 22:09:32 49° NE 22:11:04 32° E
COSMOS 2406 4.2 22:04:37 10° N 22:09:50 34° ENE 22:12:12 25° ESE
H-2A R/B 4.5 22:07:39 10° SW 22:10:51 17° W 22:14:06 10° NW
Cosmos 1782 Rocket 3.6 22:08:29 10° N 22:12:57 64° E 22:14:38 36° SSE
Cosmos 2034 Rocket 4.3 22:07:41 10° NNW 22:13:48 67° W 22:19:14 13° S
Cosmos 1703 Rocket 4.2 22:09:46 10° SSW 22:14:01 55° W 22:18:16 10° N
STARLINK-1156 4.0 22:10:28 10° NW 22:14:32 55° NE 22:15:52 37° E
Cosmos 1624 Rocket 4.0 22:09:35 10° SSW 22:14:53 85° WNW 22:20:15 10° NNE
Cosmos 1544 3.2 22:13:08 10° N 22:16:42 51° E 22:17:04 48° ESE
Cosmos 1743 3.1 22:13:30 10° NNW 22:17:15 59° W 22:19:04 28° SSW
Cosmos 1190 Rocket 4.3 22:12:58 10° N 22:18:04 52° ENE 22:19:55 35° SE
Cosmos 909 Rocket 4.5 22:11:03 10° NNW 22:18:35 60° ENE 22:21:51 30° SE
NOSS 2-3 (D) 4.3 22:14:45 10° SW 22:18:48 52° NW 22:23:22 10° NNE
SAR-Lupe-2 3.4 22:15:15 10° NNE 22:18:50 68° ESE 22:19:32 52° SSE
STARLINK-1148 3.8 22:15:24 10° NW 22:19:30 61° NE 22:20:39 42° E
Okean 2 Rocket 4.1 22:18:10 10° NNE 22:22:03 29° ENE 22:22:21 29° E
MetOp-B 4.1 22:21:53 33° SSE 22:24:24 80° ENE 22:29:46 10° N
STARLINK-1158 3.7 22:20:22 10° NW 22:24:30 68° NE 22:25:26 49° ESE
Landsat 7 3.9 22:27:51 43° SE 22:29:06 58° ENE 22:33:47 10° N
Cosmos 1140 Rocket 3.6 22:24:06 10° N 22:29:15 60° ENE 22:30:45 42° SE
STARLINK-1162 3.6 22:25:19 10° NW 22:29:27 75° NE 22:30:12 57° ESE
Cosmos 614 Rocket 4.0 22:26:34 10° NNW 22:31:38 72° WSW 22:33:42 36° S
Cosmos 1975 2.8 22:30:35 10° N 22:34:38 79° W 22:35:28 54° S
Aureole 1 Rocket 3.3 22:30:39 10° NNW 22:35:03 74° ENE 22:36:37 46° SE
STARLINK-1159 3.4 22:35:17 10° NW 22:39:26 88° SW 22:39:47 74° SE
Cosmos 2279 Rocket 4.3 22:34:40 10° N 22:40:44 51° E 22:42:22 41° ESE
ERS-1 Rocket 3.4 22:40:27 42° E 22:41:15 45° ENE 22:46:02 10° N
STARLINK-1171 3.5 22:40:16 10° NW 22:44:25 79° SW 22:44:35 77° SSW
Cosmos 1954 Rocket 4.3 22:40:01 10° N 22:45:09 53° ENE 22:46:02 47° ESE
Spot 2 Rocket 3.5 22:45:52 45° S 22:47:24 75° WSW 22:52:27 10° NNW
Cosmos 332 Rocket 4.4 22:48:37 41° E 22:48:37 41° E 22:52:38 10° NNE
Cosmos 2082 Rocket 3.5 22:43:52 10° N 22:48:40 27° ENE 22:49:50 25° E
STARLINK-1155 3.6 22:45:16 10° NW 22:49:22 70° SW 22:49:22 70° SW
SeaSat 1 3.9 22:45:12 10° NE 22:47:36 23° ENE 22:47:36 23° ENE
EXPRESS MD2 4.3 22:51:02 37° ENE 22:51:02 37° ENE 22:54:42 10° NE
STARLINK-1166 3.8 22:50:15 10° NW 22:54:08 62° WSW 22:54:08 62° WSW
Cosmos 1634 Rocket 4.1 22:49:25 10° N 22:55:43 72° W 22:58:25 36° SSW
CARTOSAT-1 3.7 22:56:41 58° ENE 22:56:41 58° ENE 23:00:44 10° N
Cosmos 1437 Rocket 4.0 22:58:27 31° NE 22:58:27 31° NE 23:00:40 10° NNE
Cosmos 1833 Rocket 3.0 22:51:37 10° N 22:57:05 51° ENE 22:57:56 47° E
Cosmos 676 Rocket 3.9 22:52:49 10° NNW 22:58:04 73° ENE 22:58:44 64° ESE
STARLINK-1165 4.1 22:55:16 10° NW 22:58:55 53° WSW 22:58:55 53° WSW
SEDSat Delta rocket 4.0 22:54:19 10° W 23:00:51 53° S 23:01:27 52° S
STARLINK-1169 4.3 23:00:16 10° WNW 23:03:42 46° WSW 23:03:42 46° WSW
Cosmos 1943 Rocket 4.3 23:12:02 12° ENE 23:12:02 12° ENE 23:12:47 10° ENE
IGS 5A 4.2 23:10:01 43° WSW 23:10:10 43° W 23:14:08 10° NNW
Terra 2.1 23:14:02 56° NE 23:14:02 56° NE 23:18:23 10° N
Cosmos 2278 Rocket 3.4 23:11:36 10° SW 23:16:55 41° WNW 23:22:15 10° N
Cosmos 2180 Rocket 4.4 23:11:17 10° N 23:17:42 81° E 23:18:45 63° SSE
Lacrosse 5 3.4 23:16:20 10° NNW 23:20:33 26° NE 23:21:33 24° ENE
Cosmos 1300 Rocket 4.0 23:18:37 10° NNW 23:22:41 58° WNW 23:22:41 58° WNW
Cosmos 1932 4.3 23:19:11 10° NNW 23:25:44 88° ENE 23:26:34 70° SSE
Cosmos 1452 Rocket 4.1 23:26:55 39° WSW 23:28:28 52° WNW 23:33:38 10° N
Cosmos 1674 Rocket 4.2 23:33:06 52° NW 23:33:06 52° NW 23:36:44 10° N
Cosmos 371 Rocket 4.4 23:34:23 36° W 23:35:28 41° WNW 23:40:04 10° N
Cosmos 1378 Rocket 4.4 23:40:42 50° NNW 23:40:42 50° NNW 23:44:06 10° N
ATLAS 3B CENTAUR R/B 4.4 23:39:25 10° WSW 23:43:02 20° SW 23:43:02 20° SW
SPOT 5 3.8 23:49:22 42° W 23:49:22 42° W 23:54:10 10° NNW
Meteor 1-23 Rocket 4.5 23:49:57 59° WSW 23:50:22 61° W 23:56:01 10° N
COSMOS 2406 4.5 23:49:03 10° NW 23:53:58 30° WSW 23:54:17 30° WSW
